{"data":{"norad_id":64279,"epoch":"2026-05-25T05:00:28.958400Z","epoch_age_seconds":56999,"freshness":"FRESH","line1":"1 64279U 25120Z   26145.20866850  .00034180  00000+0  98637-3 0  9992","line2":"2 64279  53.1592 118.9860 0001571  72.8134 287.3041 15.35398446 55662","mean_motion":15.35398446,"eccentricity":0.0001571,"inclination_deg":53.1592,"raan_deg":118.986,"arg_perigee_deg":72.8134,"mean_anomaly_deg":287.3041,"bstar":0.00098637,"rev_number":5566,"period_min":93.786730327328,"perigee_km":458.66302650216,"apogee_km":460.81148659357,"semimajor_km":6837.8742565479,"source":"CELESTRAK","updated_at":"2026-05-25T13:38:20.363072Z"}}